{"data":{"norad_id":33051,"epoch":"2026-05-22T23:08:19.254336Z","epoch_age_seconds":251181,"freshness":"STALE","line1":"1 33051U 08028A   26142.96411174 -.00000255  00000+0  00000+0 0  9999","line2":"2 33051   0.7062  85.6067 0005039 310.6370 283.7829  1.00268620 65788","mean_motion":1.0026862,"eccentricity":0.0005039,"inclination_deg":0.7062,"raan_deg":85.6067,"arg_perigee_deg":310.637,"mean_anomaly_deg":283.7829,"bstar":0,"rev_number":6578,"period_min":1436.1422347291,"perigee_km":35766.234993383,"apogee_km":35808.729504462,"semimajor_km":42165.619248922,"source":"CELESTRAK","updated_at":"2026-05-25T13:38:13.858853Z"}}